Tracking 17154 objects as of 2-August-2015
HD Live streaming from Space Station

SL-16 DEB

Track SL-16 DEB now!
10-day predictions
SL-16 DEB is classified as:


NORAD ID: 22289
Int'l Code: 1992-093D
Perigee: 749.5 km
Apogee: 839.9 km
Inclination: 70.8 °
Period: 100.6 minutes
Semi major axis: 7165 km
RCS: 0.0658 m2 (small)
Launch date: December 25, 1992
Source: Commonwealth of Independent States (former USSR) (CIS)

Note: This is SATELLITE DEBRIS
Your satellite tracking list
Your tracking list is empty





NASA's NSSDC Master Catalog

Two Line Element Set (TLE):
1 22289U 92093D   15214.53024627  .00000067  00000-0  43845-4 0  9999
2 22289 070.8337 327.2008 0063039 317.2315 123.8277 14.31250525179676

Source of the keplerian elements: AFSPC

N2YO: 279